Abu Dhabi, UAE

10:13 AM GST on September 29, 2016 (GMT +0400)
Abu Dhabi

Weather History for 41217 - September, 2013

Change the Weather History Date:

Monday, September 23, 2013

  Actual Average Record
Temperature  
Mean Temperature 92 °F -  
Max Temperature 100 °F - - ()
Min Temperature 84 °F - - ()
Cooling Degree Days 27    
Growing Degree Days 42 (Base 50)    
Moisture  
Dew Point 77 °F    
Average Humidity 65    
Maximum Humidity 89    
Minimum Humidity 23    
Precipitation  
Precipitation 0.00 in - - ()
Sea Level Pressure  
Sea Level Pressure 29.59 in    
Wind  
Wind Speed 5 mph ()    
Max Wind Speed 15 mph    
Max Gust Speed -    
Visibility 5.6 miles    
Events      
T = Trace of Precipitation, MM = Missing Value Source: Averaged Metar Reports

Daily Weather History Graph

Daily Weather History Graph

Search for Another Location

Airport or City:

Trip Planner

Search our weather history database for the weather conditions in past years. The results will help you decide how hot, cold, wet, or windy it might be!

Date:

Astronomy

Sep. 23, 2013 Rise Set
Actual Time 6:10 AM GST 6:16 PM GST
Civil Twilight 5:47 AM GST 6:39 PM GST
Nautical Twilight 5:21 AM GST 7:05 PM GST
Astronomical Twilight 4:54 AM GST 7:32 PM GST
Moon 9:00 PM GST (9/23) 9:38 AM GST (9/23)
Length of Visible Light 12h 51m
Length of Day
12h 06m
Waning Gibbous, 84% of the Moon is Illuminated
Sep 23
Waning Gibbous
Sep 27
Last Quarter
Oct 5
New
Oct 12
First Quarter
Oct 19
Full

Hourly Weather History & Observations

Time (GST) Temp. Heat Index Dew Point Humidity Pressure Visibility Wind Dir Wind Speed Gust Speed Precip Events Conditions
12:00 AM 87.8 °F 102.5 °F 78.8 °F 75% 29.56 in - North 2.3 mph - N/A   Clear
1:00 AM 88 °F - 79 °F 69% 29.57 in 6 mi NNE 1.2 mph - -  
1:00 AM 87.8 °F 102.5 °F 78.8 °F 75% 29.56 in - NNE 1.2 mph - N/A   Clear
2:00 AM 86.0 °F 99.3 °F 78.8 °F 79% 29.56 in - NNW 2.3 mph - N/A   Clear
3:00 AM 86.0 °F 101.9 °F 80.6 °F 84% 29.56 in - WNW 3.5 mph - N/A   Clear
4:00 AM 86.0 °F 101.9 °F 80.6 °F 84% 29.56 in 5.6 mi NW 2.3 mph - N/A   Unknown
5:00 AM 84.2 °F 94.1 °F 77.0 °F 79% 29.56 in 5.6 mi Calm Calm - N/A   Unknown
6:00 AM 84.2 °F 96.1 °F 78.8 °F 84% 29.59 in 5.6 mi Calm Calm - N/A   Unknown
7:00 AM 84 °F - 80 °F 83% 29.60 in 6 mi ESE 4.6 mph - -   Haze
7:00 AM 84.2 °F 98.3 °F 80.6 °F 89% 29.59 in 5.0 mi ESE 4.6 mph - N/A   Unknown
8:00 AM 87.8 °F 104.9 °F 80.6 °F 79% 29.62 in 5.0 mi ESE 3.5 mph - N/A   Unknown
9:00 AM 89.6 °F 108.2 °F 80.6 °F 75% 29.65 in 5.6 mi South 5.8 mph - N/A   Unknown
10:00 AM 91.4 °F 107.2 °F 78.8 °F 66% 29.65 in 5.6 mi SW 4.6 mph - N/A   Unknown
11:00 AM 96.8 °F 109.6 °F 75.2 °F 50% 29.65 in 5.6 mi South 5.8 mph - N/A   Unknown
12:00 PM 100.4 °F 107.8 °F 69.8 °F 37% 29.62 in - WSW 4.6 mph - N/A   Clear
12:45 PM 100.4 °F 104.9 °F 66.2 °F 33% 29.62 in - NW 11.5 mph - N/A   Clear
1:00 PM 100 °F - 65 °F 23% 29.62 in 6 mi NW 11.5 mph - -  
1:00 PM 100.4 °F 104.9 °F 66.2 °F 33% 29.62 in - NW 11.5 mph - N/A   Clear
2:00 PM 100.4 °F 111.9 °F 73.4 °F 42% 29.59 in - WNW 13.8 mph - N/A   Clear
3:00 PM 98.6 °F 109.2 °F 73.4 °F 44% 29.56 in - WNW 13.8 mph - N/A   Clear
4:00 PM 96.8 °F 103.1 °F 69.8 °F 41% 29.56 in - NW 15.0 mph - N/A   Clear
5:00 PM 93.2 °F 110.2 °F 78.8 °F 63% 29.56 in - WNW 15.0 mph - N/A   Clear
6:00 PM 93.2 °F 113.6 °F 80.6 °F 67% 29.56 in 5.6 mi NW 13.8 mph - N/A   Unknown
7:00 PM 91 °F - 80 °F 64% 29.60 in 6 mi NW 10.4 mph - -  
7:00 PM 91.4 °F 111.0 °F 80.6 °F 71% 29.59 in - NW 10.4 mph - N/A   Clear
8:00 PM 91.4 °F 114.3 °F 82.4 °F 75% 29.59 in - NW 6.9 mph - N/A   Clear
9:00 PM 91.4 °F 111.0 °F 80.6 °F 71% 29.59 in - WNW 9.2 mph - N/A   Clear
10:00 PM 89.6 °F 108.2 °F 80.6 °F 75% 29.62 in - WNW 8.1 mph - N/A   Clear
11:00 PM 89.6 °F 108.2 °F 80.6 °F 75% 29.62 in - WNW 4.6 mph - N/A   Clear